sat.trackr.live / text

‹ back to catalog

STARLINK-11581 [DTC]

NORAD 63144 · 2025-043N

PAYLOAD ACTIVE UNKNOWN

§ Identity

Operator
Country
US
Launch date
2025-03-03
Launch site
AFETR
Launch vehicle
Mass (kg)
RCS (m²)

Purposes: comms

External: N2YO · Heavens-Above · Gunter

§ Orbital elements

Epoch: 2026-09-20T17:04:17.724864Z

Period
91.67 min
Inclination
43.0002°
Eccentricity
0.0001427
Mean motion
15.70913571 rev/d
Perigee alt
355.3 km
Apogee alt
357.2 km
Semi-major
6,734.4 km
B*
5.6782e-4
RAAN
155.2151°
Arg perigee
263.2418°
Mean anomaly
96.8287°
Rev number
9,014

§ Raw data

STARLINK-11581 [DTC]1 63144U 25043N   26263.71131626  .00073282  00000+0  56782-3 0  99902 63144  43.0002 155.2151 0001427 263.2418  96.8287 15.70913571 90142

JSON: /api/v1/satellites/63144 · /tle

For live sub-satellite position, see the globe view (requires WebGL).

§ Visibility from observer

Set your observer location to see the next 7 days of passes ≥ 10°. The values pass through the URL so the page stays shareable.

No JS? Fill the form by hand. The geolocation button needs JavaScript.